Regional Weather Roundup
Issued by NWS

Home | Current Version | Previous Version | Text Only | Print | Product List | Glossary Off
Versions: 1 2 3 4 5 6 7 8 9 10 11 12 13 14 15 16 17 18 19 20 21 22 23 24 25 26 27

000
ASUS45 KTFX 220510
RWRMT
MONTANA REGIONAL WEATHER ROUNDUP
NATIONAL WEATHER SERVICE GREAT FALLS MT
1100 PM MDT THU SEP 21 2017

NOTE: "FAIR" INDICATES FEW OR NO CLOUDS BELOW 12000 FEET WITH NO
SIGNIFICANT WEATHER AND/OR OBSTRUCTIONS TO VISIBILITY.

MTZ001>007-043-220600-
WEST OF THE DIVIDE

CITY           SKY/WX    TMP DP  RH WIND       PRES   REMARKS
KALISPELL      PTCLDY    43  37  79 N12       29.96R
MISSOULA       PTCLDY    41  35  79 CALM      29.92S
BUTTE          CLOUDY    38  32  79 CALM      29.89R
MULLAN PASS    CLOUDY    32  30  92 VRB3      29.93R
ANACONDA         N/A     39  28  65 NE3       29.88F
DEER LODGE       N/A     43  30  61 NW7       29.92R
EUREKA           N/A     41  39  93 CALM      30.00R
HAMILTON         N/A     39  34  81 CALM      29.88F
LIBBY            N/A     41  39  93 SW3       29.97S
PLAINS           N/A     44  36  73 CALM      29.96R
$$

MTZ008-052>055-220600-
SOUTHWEST MONTANA

CITY           SKY/WX    TMP DP  RH WIND       PRES   REMARKS
BOZEMAN        CLOUDY    41  37  86 SW5       29.89S
DILLON         LGT RAIN  40  31  70 NE12      29.85F
W YELLOWSTONE  LGT SNOW  32  32 100 NW10G24   29.82F WCI  24
ENNIS          CLOUDY    36  34  93 N15G24    29.89F WCI  26
THREE FORKS      N/A     42  38  86 CALM      29.90R
TWIN BRIDGES     N/A     41  29  62 N5        29.85S
$$

MTZ009-010-012-014-046-048-049-054-220600-
EAST SLOPES AND CENTRAL MONTANA

CITY           SKY/WX    TMP DP  RH WIND       PRES   REMARKS
CUT BANK       CLOUDY    38  30  73 N10       30.02S WCI  31
GREAT FALLS    CLOUDY    43  31  62 N13       29.97R
MALMSTROM AFB  CLOUDY    43  33  67 NE14      29.97R
HELENA         CLOUDY    47  35  63 N17       29.91R
BOWMANS CRNR   MOCLDY    38  33  82 N16       29.94F WCI  28
CHOTEAU          N/A     39  30  70 N20G26    30.01S WCI  30
FAIRFIELD      CLOUDY    42  28  56 N17G25    29.97F
POWER          MOCLDY    41  29  61 N16G24    29.97S
RAYNESFORD     MOCLDY    44  33  66 CALM      29.93F
ULM            MOCLDY    45  31  58 NE16      29.95R
$$

MTZ011-013-016-021-045-047-050-051-220600-
NORTH CENTRAL MONTANA

CITY           SKY/WX    TMP DP  RH WIND       PRES   REMARKS
HAVRE          CLOUDY    44  31  60 N10       29.98S
LEWISTOWN      CLOUDY    44  33  65 CALM      29.95R
N BAR RANCH    DRIZZLE   43  32  65 N8        29.98R
CHINOOK          N/A     39  30  70 NW7       29.96F
DENTON           N/A     42  33  71 NE6       29.92R
GEYSER         MOCLDY    43  32  65 N14       29.94R
GRASS RANGE    CLOUDY    45  35  66 CALM      29.92R
JUDITH GAP     CLOUDY    41  35  79 NW7       29.93S
WINIFRED       MOCLDY    43  33  69 NE16      29.94S
$$

MTZ017>020-022>027-061-062-220600-
NORTHEAST MONTANA

CITY           SKY/WX    TMP DP  RH WIND       PRES   REMARKS
GLASGOW        CLOUDY    49  33  54 NE18      29.92S
JORDAN           N/A     50  35  56 N6        29.92R
WOLF POINT     MOCLDY    51  35  54 NE3       29.93R
MALTA          PTCLDY    46  30  53 N10G17    29.95S
POPLAR           N/A     48  39  71 CALM      29.95R
SCOBEY           N/A     44  30  58 NW9       29.94R
$$

MTZ028>42-056>058-220600-
SOUTHCENTRAL AND SOUTHEAST MONTANA

CITY           SKY/WX    TMP DP  RH WIND       PRES   REMARKS
BAKER          CLOUDY    51  34  52 N14       29.88F
BILLINGS       RAIN      41  39  93 NE12      29.94S FOG
LIVINGSTON     LGT RAIN  40  37  89 E16       29.90R
MILES CITY     CLOUDY    49  41  74 N8        29.90S
BIG TIMBER     CLOUDY    41  39  93 E3        29.95S FOG
EKALAKA          N/A     49  32  52 N8        29.86F
HARLOWTON      LGT RAIN  42  37  83 MISG      29.94R
LAUREL           N/A     41  39  93 NE9G17    29.96R FOG
$$

REGIONAL REPORTS...DAKOTAS

CITY           SKY/WX    TMP DP  RH WIND       PRES   REMARKS
WILLISTON      CLOUDY    50  37  61 NE5       29.92R
MINOT          CLEAR     52  39  61 NW7       29.85R
DICKINSON      PTCLDY    50  38  63 N10       29.85F
BEACH          MOCLDY    45  37  76 CALM      29.95R
CROSBY           N/A     46  37  71 NW8       29.92R
TIOGA            N/A     46  37  71 N6        29.91R
WATFORD CITY     N/A     43  39  87 W5        29.91R
BISMARCK       CLOUDY    60  48  64 N9        29.81R
GRAND FORKS    CLEAR     66  58  75 E5        29.71S
FARGO          CLEAR     73  68  84 SE8       29.71S
BUFFALO SD       N/A     52  37  56 N15       29.76S
$$

REGIONAL REPORTS...WYOMING/IDAHO/WASHINGTON

CITY           SKY/WX    TMP DP  RH WIND       PRES   REMARKS
GILLETTE       CLEAR     45  33  63 N13       29.86R
SHERIDAN       CLOUDY    45  41  86 W8        29.92R
BUFFALO WY     CLOUDY    44  34  67 NW10      29.91S
CODY           MIX PCPN  37  34  89 NW10G17   29.88S WCI  30
IDAHO FALLS    LGT RAIN  41  40  96 SW7       29.81S
SALMON         CLOUDY    44  36  73 CALM      29.83R
BOISE          PTCLDY    49  36  61 NW3       29.82S
SPOKANE        PTCLDY    43  41  93 N5        29.96S
$$

REGIONAL REPORTS...ALBERTA

CITY           SKY/WX    TMP DP  RH WIND       PRES   REMARKS
EDMONTON         N/A     37  37 100 N7        30.08
CALGARY        LGT RAIN  36  34  93 N9        30.07R WCI  29
LETHBRIDGE     MOCLDY    37  32  81 NW13      30.07S WCI  29
MEDICINE HAT   CLEAR     39  32  75 W10       30.02R
$$

REGIONAL REPORTS...SASKATCHEWAN

CITY           SKY/WX    TMP DP  RH WIND       PRES   REMARKS
SWIFT CURRENT  CLEAR     32  27  80 W9        29.95R WCI  24
REGINA         PTCLDY    37  32  81 W7        29.94R
SASKATOON      MOCLDY    41  39  93 W7        29.95R
$$




USA.gov is the U.S. government's official web portal to all federal, state and local government web resources and services.